SCP
2 2 1 1 1 1 1 1 1 1 1 1 1 1 1 1 0 0 0 0 0 0 0 0 0 1 1 1 1 1 1 0 0 0 0 0 0 0
2 2 2 1 1 1 1 1 1 1 2 1 1 1 1 1 0 0 0 0 0 0 0 0 0 0 0 1 1 1 0 0 0 0 1 1 1 0
2 2 1 1 1 1 1 1 1 1 1 1 1 1 1 1 0 0 0 0 0 0 0 0 0 0 0 0 0 0 0 0 0 0 1 1 1 0
1 1 1 1 1 1 1 1 1 1 1 1 1 1 1 1 0 0 0 0 0 0 0 0 0 0 0 0 0 0 0 0 0 0 0 0 0 0
1 1 1 1 1 1 1 1 1 1 1 1 0 1 1 1 0 0 0 0 0 0 0 0 0 0 0 0 0 0 0 0 0 0 0 0 0 0
1 1 1 1 1 0 0 1 1 1 1 0 0 0 0 0 0 0 0 0 0 0 0 0 0 0 0 0 0 0 0 0 0 0 0 0 0 0
1 1 1 1 1 0 0 0 0 0 0 0 0 0 0 0 0 0 0 0 0 0 0 0 0 0 0 0 0 0 0 0 0 0 0 0 0 0
1 1 1 1 0 0 0 0 0 0 0 0 0 0 0 0 0 0 0 0 0 0 0 0 0 0 0 0 0 0 0 0 0 0 0 0 0 0
1 1 1 0 0 0 0 0 0 0 0 0 0 0 0 0 0 0 0 0 0 0 0 0 0 0 0 0 0 0 0 0 0 0 0 0 0 0
0 0 0 0 0 0 0 0 0 0 0 0 0 0 0 0 0 0 0 0 0 0 0 0 0 0 0 0 0 0 0 0 0 0 0 0 0 0
0 0 0 0 0 0 0 0 0 0 0 0 0 0 0 0 0 0 0 0 0 0 0 0 0 0 0 0 0 0 0 0 0 0 0 0 0 0
0 0 0 0 0 0 0 0 0 0 0 0 0 0 0 0 0 0 0 0 0 0 0 0 0 0 0 0 0 0 0 0 0 0 0 0 0 0
0 0 0 0 0 0 0 0 0 0 0 0 0 0 0 0 0 0 0 0 0 0 0 0 0 0 0 0 0 0 0 0 0 0 0 0 0 0
0 0 0 0 0 0 0 0 0 0 0 0 0 0 0 0 0 0 0 0 0 0 0 0 0 0 0 0 0 0 0 0 0 0 0 0 0 0
0 0 0 0 0 0 0 0 0 0 0 0 0 0 0 0 0 0 0 0 0 0 0 0 0 0 0 0 0 0 0 0 0 0 0 0 0 0
0 0 0 0 0 0 0 0 0 0 0 0 0 0 0 0 0 0 0 0 0 0 0 0 0 0 0 0 0 0 0 0 0 0 0 0 0 0
0 0 0 0 0 0 0 0 0 0 0 0 0 0 0 0 0 0 0 0 0 0 0 0 0 0 0 0 0 0 0 0 0 0 0 0 0 0
0 0 0 0 0 0 0 0 0 0 0 0 0 0 0 0 0 0 0 0 0 0 0 0 0 0 0 0 0 0 0 0 0 0 0 0 0 0
0 0 0 0 0 0 0 0 0 0 0 0 0 0 0 0 0 0 0 0 0 0 0 0 0 0 0 0 0 0 0 0 0 0 0 0 0 0
0 0 0 0 0 0 0 0 0 0 0 0 0 0 0 0 0 0 0 0 0 0 0 0 0 0 0 0 0 0 0 0 0 0 0 0 0 0
0 0 0 0 0 0 0 0 0 0 0 0 0 0 0 0 0 0 0 0 0 0 0 0 0 0 0 0 0 0 0 0 0 0 0 0 0 0
0 0 0 0 0 0 0 0 0 0 0 0 0 0 0 0 0 0 0 0 0 0 0 0 0 0 0 0 0 0 0 0 0 0 0 0 0 0
0 0 0 0 0 0 0 0 0 0 0 0 0 0 0 0 0 0 0 0 0 0 0 0 0 0 0 0 0 0 0 0 0 0 0 0 0 0
Wind_Speed
4 4 3 3 3 3 2 3 4 3 3 2 1 1 2 2 5 4 3 8 9 8 7 7 6 6 5 4 3 2 1 1 1 1 1 1 2 2
3 4 4 3 3 3 3 3 3 3 2 2 2 1 2 3 5 3 3 6 8 7 7 7 6 5 5 4 4 3 2 1 1 2 2 2 2 3
2 3 3 3 3 3 3 3 3 3 3 1 1 2 2 2 2 2 3 4 4 7 7 6 6 5 4 4 3 3 2 1 1 2 2 2 2 3
2 2 2 2 3 3 3 3 3 3 3 2 2 2 2 3 3 3 4 5 4 7 8 7 6 5 5 4 3 2 2 1 0 1 1 1 2 3
3 3 3 3 2 2 3 3 2 3 2 3 2 2 2 2 3 3 4 3 5 7 8 7 7 6 6 5 4 4 3 2 2 2 1 1 1 2
2 3 3 3 2 2 2 3 2 3 3 3 3 2 2 2 3 3 3 2 3 5 5 6 8 8 8 7 6 6 5 4 3 3 2 2 2 2
5 5 4 5 5 3 3 2 2 2 3 3 3 2 2 2 2 2 4 4 4 3 4 4 5 5 5 7 8 8 7 6 5 5 4 4 3 3
5 4 5 6 7 8 8 6 5 4 3 3 3 3 3 3 3 3 4 4 3 2 4 5 5 5 5 4 7 10 9 9 8 7 6 5 5 5
5 4 4 6 6 4 6 8 8 8 5 3 4 4 3 3 4 4 3 3 3 3 5 4 4 5 4 6 10 11 11 10 9 8 7 7 6 6
5 6 5 6 6 5 5 7 7 7 6 5 5 4 4 3 3 4 5 5 4 3 4 4 3 3 5 4 9 11 11 11 11 10 9 8 6 7
6 7 7 7 10 8 6 7 6 5 8 10 9 9 9 9 6 4 4 4 4 2 2 3 3 3 3 3 5 10 10 10 10 11 11 9 7 6
6 7 11 9 10 8 5 5 6 4 4 5 6 6 6 7 7 4 3 4 3 2 1 3 3 3 3 2 2 2 5 7 9 10 11 11 9 4
5 5 5 11 11 10 7 5 4 3 4 5 5 5 5 5 5 5 4 4 4 2 1 3 3 2 4 3 2 1 2 2 2 4 7 10 10 7
4 4 4 8 9 8 6 6 6 5 4 4 4 4 4 4 4 4 6 6 5 4 3 3 2 3 4 3 3 1 2 2 2 2 3 4 6 8
3 4 4 6 6 5 7 7 5 4 4 4 5 4 3 3 3 4 5 6 6 7 6 5 4 4 4 4 3 2 2 2 2 2 2 2 2 2
3 3 4 5 4 4 4 4 4 4 4 4 4 3 3 3 3 3 3 4 5 5 7 8 7 7 5 5 4 3 2 2 1 1 2 2 2 3
3 1 2 2 3 3 3 4 4 4 4 3 3 3 3 3 2 2 2 3 4 3 3 4 7 8 8 5 4 3 3 2 1 1 1 1 2 3
4 3 3 3 3 3 3 3 3 3 3 3 3 3 2 2 2 2 2 3 4 3 3 2 2 3 3 5 6 3 2 1 0 0 1 1 1 1
3 3 3 3 3 3 3 3 2 2 2 2 2 3 2 2 2 2 2 3 3 3 2 1 1 2 2 2 2 3 2 1 0 0 0 1 1 2
2 2 2 2 2 2 2 2 2 2 2 2 2 2 2 2 2 2 2 3 3 3 2 2 3 2 2 3 3 1 2 2 1 0 1 1 0 1
2 2 2 2 2 2 2 2 2 1 1 2 2 2 2 2 2 2 3 3 2 2 3 2 1 1 0 2 3 1 0 1 2 2 0 1 1 1
1 2 1 1 1 1 1 1 1 1 1 2 2 1 1 2 2 2 2 2 2 2 3 2 1 0 1 1 2 2 2 1 0 0 1 3 3 1
2 2 2 2 1 1 0 1 0 1 1 1 1 1 1 1 1 1 2 2 2 2 3 2 1 1 1 1 1 1 2 3 2 2 3 6 9 8
Wind_Direction
197 190 178 173 181 186 179 171 170 185 214 208 192 164 132 127 150 172 165 181 183 185 186 188 191 196 196 197 192 189 182 198 221 243 292 286 289 306
182 180 178 176 177 181 181 183 182 174 193 196 184 168 157 151 158 163 157 163 169 172 178 182 185 189 189 182 171 168 171 192 220 250 260 275 285 295
154 169 179 173 172 179 178 185 185 171 182 194 156 159 148 151 156 163 148 138 147 164 163 163 160 164 165 163 157 160 177 205 245 268 256 272 279 289
142 133 155 163 170 171 174 181 178 179 172 171 148 150 163 159 161 161 150 141 139 152 153 149 142 139 138 136 135 134 136 137 337 308 281 287 291 297
135 137 138 138 152 159 162 155 161 163 149 148 146 146 141 143 140 130 124 119 135 140 141 134 126 121 121 114 107 99 90 73 57 49 41 10 338 320
97 103 109 124 125 126 131 133 139 139 138 135 139 134 123 123 122 124 116 109 111 122 117 118 112 103 95 91 89 84 78 70 61 56 52 44 32 18
56 64 74 86 85 87 102 107 116 120 129 134 136 125 124 124 132 130 121 110 88 99 105 108 102 87 79 72 72 72 70 66 60 60 58 55 55 55
61 61 69 76 78 79 85 91 95 103 118 122 128 130 131 129 125 128 128 125 111 102 101 92 88 82 73 69 71 73 69 67 64 62 62 63 66 69
54 54 59 65 67 80 85 79 65 62 83 107 108 113 122 132 127 123 125 115 116 132 109 95 88 86 76 71 78 77 72 68 65 62 60 61 67 75
54 53 59 56 48 60 82 78 68 50 58 75 84 82 80 83 103 121 124 109 98 106 110 107 109 98 91 74 78 81 76 70 66 62 59 58 68 78
61 57 56 53 39 57 86 93 87 75 72 83 90 92 81 73 82 97 110 118 116 114 98 108 126 115 104 90 82 83 80 74 68 63 58 52 61 87
63 58 49 46 41 54 77 93 93 94 97 92 84 81 80 74 73 86 105 121 123 114 104 109 143 138 119 108 117 105 83 75 74 67 60 50 48 70
55 48 40 40 43 51 66 74 84 92 87 89 84 77 69 64 59 59 64 92 105 99 116 112 142 140 122 127 105 90 101 104 85 69 66 61 55 58
58 49 41 41 44 50 58 57 58 67 80 83 80 72 69 65 62 65 68 67 74 89 81 96 119 128 121 118 119 95 62 66 78 83 84 74 64 62
57 59 51 43 44 55 57 53 53 68 76 81 83 78 77 77 71 69 68 65 56 54 54 60 80 97 104 116 124 132 110 58 56 73 80 83 80 60
40 52 53 49 56 52 47 49 59 72 87 92 93 88 78 71 69 78 93 89 70 48 42 52 62 79 90 95 106 108 106 112 50 67 79 77 80 80
353 38 57 55 56 52 49 48 51 59 67 74 88 89 84 81 74 64 80 90 98 96 67 54 67 72 69 78 95 95 101 97 99 67 79 84 107 110
21 50 54 55 60 61 60 55 54 53 62 75 84 92 94 97 94 77 81 99 106 106 109 113 105 88 73 46 40 88 91 105 140 98 96 100 111 133
39 60 61 54 54 58 59 64 64 50 49 70 86 92 90 87 93 92 90 96 103 107 107 101 93 114 132 129 11 29 94 125 80 356 336 134 169 186
64 68 69 63 58 60 56 58 65 53 48 64 77 83 88 92 93 95 96 102 116 115 95 63 58 68 107 145 154 123 36 86 100 63 324 332 163 125
86 81 77 75 74 77 65 46 57 71 67 78 82 82 88 98 100 103 103 95 95 113 116 112 142 154 77 77 95 126 218 39 124 145 134 34 332 318
126 129 121 100 92 93 93 60 49 72 67 77 87 82 78 98 119 123 130 133 122 116 122 146 189 138 72 113 139 159 181 216 297 78 189 175 167 193
166 160 155 150 133 119 143 205 202 152 135 119 120 109 99 96 98 111 119 119 115 122 129 142 148 94 87 111 132 159 178 191 196 216 262 234 221 223